| time (UTC) | temp C | wind direction | speed KPH | gust KPH | rain 1hr cm | rain 24hr cm | rain mn cm | humidity % | barometer mb |
| 20260506212051 | 20 | 120 | 0.0 | 14.5 | 0.00 | 0.00 | 0.00 | 7 | 1007.4 |
| 20260506205053 | 19 | 163 | 0.0 | 1.6 | 0.00 | 0.00 | 0.00 | 7 | 1007.2 |
| 20260506203551 | 19 | 252 | 3.2 | 14.5 | 0.00 | 0.00 | 0.00 | 7 | 1007.2 |
| 20260506202051 | 19 | 225 | 0.0 | 9.7 | 0.00 | 0.00 | 0.00 | 7 | 1007.4 |
| 20260506195051 | 18 | 0 | 0.0 | 0.0 | 0.00 | 0.00 | 0.00 | 8 | 1007.9 |
| 20260506193553 | 18 | 0 | 0.0 | 0.0 | 0.00 | 0.00 | 0.00 | 8 | 1008.1 |
| 20260506190553 | 19 | 0 | 0.0 | 0.0 | 0.00 | 0.00 | 0.00 | 7 | 1007.9 |
| 20260506183551 | 18 | 176 | 1.6 | 12.9 | 0.00 | 0.00 | 0.00 | 7 | 1008.1 |
| 20260506182051 | 19 | 292 | 0.0 | 8.0 | 0.00 | 0.00 | 0.00 | 7 | 1008.4 |
| 20260506180552 | 21 | 187 | 3.2 | 17.7 | 0.00 | 0.00 | 0.00 | 6 | 1008.3 |
| 20260506175051 | 21 | 250 | 0.0 | 6.4 | 0.00 | 0.00 | 0.00 | 6 | 1008.3 |
| 20260506173625 | 21 | 0 | 0.0 | 1.6 | 0.00 | 0.00 | 0.00 | 7 | 1008.3 |
| 20260506173551 | 21 | 0 | 0.0 | 1.6 | 0.00 | 0.00 | 0.00 | 7 | 1008.3 |
| 20260506170551 | 20 | 0 | 0.0 | 0.0 | 0.00 | 0.00 | 0.00 | 7 | 1008.9 |
| 20260506163551 | 18 | 225 | 0.0 | 3.2 | 0.00 | 0.00 | 0.00 | 7 | 1009.9 |
| 20260506162051 | 18 | 161 | 1.6 | 8.0 | 0.00 | 0.00 | 0.00 | 7 | 1010.1 |
| 20260506160551 | 19 | 0 | 3.2 | 16.1 | 0.00 | 0.00 | 0.00 | 7 | 1010.1 |
| 20260506155051 | 21 | 117 | 1.6 | 8.0 | 0.00 | 0.00 | 0.00 | 5 | 1010.0 |
| 20260506153552 | 22 | 59 | 3.2 | 12.9 | 0.00 | 0.00 | 0.00 | 5 | 1010.1 |
| 20260506152054 | 21 | 213 | 4.8 | 12.9 | 0.00 | 0.00 | 0.00 | 5 | 1010.0 |
| 20260506150553 | 21 | 292 | 0.0 | 4.8 | 0.00 | 0.00 | 0.00 | 6 | 1010.2 |
| 20260506145649 | 22 | 148 | 6.4 | 17.7 | 0.00 | 0.00 | 0.00 | 5 | 1010.2 |
| 20260506145051 | 22 | 148 | 6.4 | 17.7 | 0.00 | 0.00 | 0.00 | 5 | 1010.2 |
| 20260506143551 | 22 | 161 | 1.6 | 20.9 | 0.00 | 0.00 | 0.00 | 5 | 1010.0 |
| 20260506142052 | 22 | 202 | 1.6 | 6.4 | 0.00 | 0.00 | 0.00 | 5 | 1010.0 |
| 20260506140552 | 21 | 222 | 4.8 | 14.5 | 0.00 | 0.00 | 0.00 | 6 | 1009.8 |
| 20260506135051 | 21 | 180 | 0.0 | 12.9 | 0.00 | 0.00 | 0.00 | 6 | 1009.9 |
| 20260506133551 | 21 | 213 | 1.6 | 9.7 | 0.00 | 0.00 | 0.00 | 6 | 1010.2 |
| 20260506132051 | 21 | 227 | 1.6 | 9.7 | 0.00 | 0.00 | 0.00 | 6 | 1010.3 |
| 20260506130551 | 21 | 183 | 1.6 | 12.9 | 0.00 | 0.00 | 0.00 | 6 | 1010.2 |
| 20260506125051 | 20 | 157 | 1.6 | 11.3 | 0.00 | 0.00 | 0.00 | 6 | 1010.1 |
| 20260506123551 | 18 | 200 | 1.6 | 12.9 | 0.00 | 0.00 | 0.00 | 7 | 1010.3 |
| 20260506122052 | 18 | 0 | 0.0 | 1.6 | 0.00 | 0.00 | 0.00 | 7 | 1010.4 |
| 20260506115051 | 18 | 112 | 0.0 | 11.3 | 0.00 | 0.00 | 0.00 | 7 | 1010.6 |
| 20260506113551 | 18 | 0 | 0.0 | 1.6 | 0.00 | 0.00 | 0.00 | 7 | 1010.7 |
| 20260506112051 | 17 | 157 | 0.0 | 1.6 | 0.00 | 0.00 | 0.00 | 7 | 1010.7 |
| 20260506110552 | 17 | 225 | 0.0 | 1.6 | 0.00 | 0.00 | 0.00 | 8 | 1010.6 |
| 20260506105051 | 16 | 270 | 0.0 | 3.2 | 0.00 | 0.00 | 0.00 | 8 | 1010.5 |
| 20260506103552 | 16 | 225 | 0.0 | 1.6 | 0.00 | 0.00 | 0.00 | 8 | 1010.5 |
| 20260506102051 | 16 | 292 | 0.0 | 3.2 | 0.00 | 0.00 | 0.00 | 8 | 1010.4 |
| 20260506100551 | 16 | 227 | 1.6 | 11.3 | 0.00 | 0.00 | 0.00 | 8 | 1010.3 |
| 20260506095051 | 16 | 224 | 4.8 | 16.1 | 0.00 | 0.00 | 0.00 | 8 | 1010.2 |
| 20260506093553 | 16 | 187 | 1.6 | 11.3 | 0.00 | 0.00 | 0.00 | 8 | 1010.4 |
| 20260506090551 | 16 | 0 | 0.0 | 0.0 | 0.00 | 0.00 | 0.00 | 8 | 1010.4 |
| 20260506085051 | 16 | 0 | 0.0 | 0.0 | 0.00 | 0.00 | 0.00 | 8 | 1010.7 |
| 20260506083551 | 17 | 0 | 0.0 | 1.6 | 0.00 | 0.00 | 0.00 | 8 | 1010.7 |
| 20260506082051 | 17 | 135 | 0.0 | 1.6 | 0.00 | 0.00 | 0.00 | 8 | 1010.7 |
| 20260506080551 | 17 | 225 | 0.0 | 1.6 | 0.00 | 0.00 | 0.00 | 8 | 1010.7 |
| 20260506070552 | 17 | 0 | 0.0 | 1.6 | 0.00 | 0.00 | 0.00 | 8 | 1010.8 |
| 20260506062051 | 17 | 233 | 1.6 | 12.9 | 0.00 | 0.00 | 0.00 | 7 | 1010.9 |
| 20260506050551 | 18 | 202 | 1.6 | 11.3 | 0.00 | 0.00 | 0.00 | 7 | 1011.4 |
| 20260506045051 | 18 | 0 | 0.0 | 0.0 | 0.00 | 0.00 | 0.00 | 7 | 1011.6 |
| 20260506043551 | 18 | 202 | 1.6 | 8.0 | 0.00 | 0.00 | 0.00 | 7 | 1011.7 |
| 20260506042051 | 18 | 0 | 0.0 | 1.6 | 0.00 | 0.00 | 0.00 | 7 | 1011.5 |
| 20260506040551 | 18 | 157 | 0.0 | 8.0 | 0.00 | 0.00 | 0.00 | 6 | 1011.5 |
| 20260506035051 | 18 | 197 | 1.6 | 6.4 | 0.00 | 0.00 | 0.00 | 6 | 1011.5 |
| 20260506033551 | 19 | 172 | 1.6 | 12.9 | 0.00 | 0.00 | 0.00 | 6 | 1011.5 |
| 20260506032051 | 19 | 225 | 0.0 | 14.5 | 0.00 | 0.00 | 0.00 | 6 | 1011.5 |
| 20260506030553 | 19 | 249 | 3.2 | 14.5 | 0.00 | 0.00 | 0.00 | 6 | 1011.5 |
| 20260506025052 | 20 | 192 | 4.8 | 14.5 | 0.00 | 0.00 | 0.00 | 6 | 1011.4 |
| 20260506023551 | 20 | 200 | 1.6 | 14.5 | 0.00 | 0.00 | 0.00 | 5 | 1011.4 |
| 20260506022052 | 20 | 150 | 4.8 | 12.9 | 0.00 | 0.00 | 0.00 | 5 | 1011.4 |
| 20260506020551 | 20 | 185 | 4.8 | 12.9 | 0.00 | 0.00 | 0.00 | 5 | 1011.4 |
| 20260506015051 | 20 | 206 | 3.2 | 16.1 | 0.00 | 0.00 | 0.00 | 5 | 1011.2 |
| 20260506013647 | 20 | 225 | 1.6 | 8.0 | 0.00 | 0.00 | 0.00 | 5 | 1011.0 |
| 20260506013554 | 20 | 225 | 1.6 | 8.0 | 0.00 | 0.00 | 0.00 | 5 | 1011.0 |
| 20260506012052 | 21 | 0 | 0.0 | 1.6 | 0.00 | 0.00 | 0.00 | 5 | 1010.9 |
| 20260506010552 | 21 | 99 | 1.6 | 8.0 | 0.00 | 0.00 | 0.00 | 5 | 1010.8 |
| 20260506005051 | 21 | 0 | 0.0 | 3.2 | 0.00 | 0.00 | 0.00 | 5 | 1010.6 |
| 20260506003552 | 22 | 247 | 1.6 | 8.0 | 0.00 | 0.00 | 0.00 | 5 | 1010.4 |
| 20260506002051 | 23 | 206 | 4.8 | 12.9 | 0.00 | 0.00 | 0.00 | 4 | 1010.2 |
| 20260506000551 | 24 | 225 | 4.8 | 16.1 | 0.00 | 0.00 | 0.00 | 4 | 1010.1 |
| 20260505235051 | 25 | 0 | 0.0 | 9.7 | 0.00 | 0.00 | 0.00 | 3 | 1009.9 |
| 20260505233552 | 25 | 161 | 3.2 | 11.3 | 0.00 | 0.00 | 0.00 | 3 | 1009.6 |
| 20260505232051 | 26 | 188 | 3.2 | 14.5 | 0.00 | 0.00 | 0.00 | 3 | 1009.5 |
| 20260505230552 | 27 | 171 | 6.4 | 17.7 | 0.00 | 0.00 | 0.00 | 3 | 1009.3 |
| 20260505223552 | 27 | 224 | 8.0 | 16.1 | 0.00 | 0.00 | 0.00 | 3 | 1008.8 |
| 20260505222051 | 28 | 191 | 4.8 | 14.5 | 0.00 | 0.00 | 0.00 | 3 | 1008.7 |
| 20260505220551 | 28 | 201 | 9.7 | 25.7 | 0.00 | 0.00 | 0.00 | 3 | 1008.6 |
| 20260505215051 | 29 | 190 | 8.0 | 20.9 | 0.00 | 0.00 | 0.00 | 2 | 1008.5 |
| 20260505213626 | 29 | 257 | 9.7 | 17.7 | 0.00 | 0.00 | 0.00 | 2 | 1008.6 |
| 20260505213552 | 29 | 257 | 9.7 | 17.7 | 0.00 | 0.00 | 0.00 | 2 | 1008.6 |